Regional Weather Roundup
Issued by NWS Newport/Morehead, NC

Current Version | Previous Version | Graphics & Text | Print | Product List | Glossary Off
Versions: 1 2 3 4 5 6 7 8 9 10 11 12 13 14 15 16 17 18 19 20 21 22 23 24 25 26 27 28 29 30 31 32 33 34 35 36 37 38 39 40 41 42 43 44 45 46 47 48 49 50

000
ASUS42 KMHX 011525
RWRMHX
WEATHER ROUNDUP FOR EASTERN NORTH CAROLINA
NATIONAL WEATHER SERVICE NEWPORT/MOREHEAD CITY NC
1100 AM EDT TUE SEP 01 2015

NOTE: "FAIR" INDICATES FEW OR NO CLOUDS BELOW 12,000 FEET
WITH NO SIGNIFICANT WEATHER AND/OR OBSTRUCTIONS TO VISIBILITY

NCZ015>017-031-032-045>047-102-103-011600-
NORTH COAST

CITY           SKY/WX    TMP DP  RH WIND       PRES   REMARKS
EDENTON        CLOUDY    76  70  84 NW6       30.11R
ELIZABETH CITY CLOUDY    79  72  79 VRB3      30.10R
KITTY HAWK     PTSUNNY   85  75  72 NE5       30.09R
MANTEO         MOSUNNY   81  74  80 NE5       30.10R

$$

NCZ045>047-081-094-103-104-011600-
CENTRAL COAST

CITY           SKY/WX    TMP DP  RH WIND       PRES   REMARKS
FRISCO         CLOUDY    82  74  76 VRB5      30.09R
SWANQUARTER      N/A     81 N/A N/A N2G9      30.06S

$$

NCZ095-097-098-100-101-011600-
SOUTHERN COAST

CITY           SKY/WX    TMP DP  RH WIND       PRES   REMARKS
BEAUFORT       MOSUNNY   80  74  81 NW7       30.11R
CEDAR ISLAND     N/A     79 N/A N/A NW10      30.15S
JACKSONVILLE   CLOUDY    78  70  76 N9        30.11S
PINEY ISLAND   CLOUDY   N/A N/A N/A NW9       30.10S
WILMINGTON     PTSUNNY   81  72  74 W8        30.12S


$$

NCZ011>013-027>030-043-044-078>080-089-090>093-098-011600-
COASTAL PLAIN

CITY           SKY/WX    TMP DP  RH WIND       PRES   REMARKS
AHOSKIE        MOSUNNY   74  70  85 CALM      30.12R
CLINTON        SUNNY     81  72  74 NW5       30.13S
ELIZABETHTOWN  SUNNY     80  70  70 CALM      30.13S
GOLDSBORO      CLOUDY    79  72  78 N6        30.11S
GREENVILLE     CLOUDY    77  72  83 W3        30.14R
HAVELOCK       PTSUNNY   82  73  74 N8        30.12R
KENANSVILLE    PTSUNNY   78  69  73 N5        30.13S
KINSTON        CLOUDY    75  72  88 N5        30.13R
NEW BERN       CLOUDY    78  71  79 N3        30.13R
RICHLANDS      CLOUDY    79  68  69 NW5       30.12S
ROCKY MOUNT    MOSUNNY   80  70  71 NW5       30.12S
WASHINGTON     CLOUDY    75  71  85 CALM      30.12S
WHITEVILLE     SUNNY     80  71  73 N5        30.13S

$$

AMZ130-135-150-152-154-156-158-170-250-252-270-ANZ085-086-088-633-658-670-011600-
MARINE OBSERVATIONS

STATION/POSITION TIME  TEMP    WIND        PRES    WAVE   SWELL
                       AIR SEA DIR/SP/G            HT/PER HT/PER
                 (UTC) (F)     (DEG/KT/KT) (MB)    (FT/S) (FT/S)
CHESAPEAKE LIGHT 1500   76      20/  7/  8 1019.8
64 E VA BEACH    1450   78 78   20/  8/  8 1018.4    3/ 9   3/ 9
DUCK             1500   77 78  350/  7/  7 1018.4
2 E DUCK         1511      79                N/A     2/10
OREGON INLET     1500   79 79   40/  6/  8 1018.9
13E OREGON INLT  1500      79                N/A     3/10
HATTERAS CG      1500   79 79  330/  7/  8 1018.9
DIAMOND BUOY     1450   79 84  350/  8/ 10 1018.8    3/ 6   3/ 6
CAPE LOOKOUT     1500   79     280/  6/  7 1019.2
BEAUFORT LAB     1500   80 78  350/  5/  7 1018.8
30 SE NEW RVR IN 1408   78 81  320/  8/ 10 1019.8
30 SE NEW RVR IN 1425      81                N/A     3/ 8
27 SE WRIGHTSVLE 1500   74 81  310/  6/  8   N/A
5 SE WRIGHTSVLE  1408   77 81  290/  6/  8 1019.7
225 S CAPE HAT   1450   84 84  250/ 10/ 12 1019.6    3/ 6   2/ 6
41 SE CHARLESTON 1450   81 83   10/  8/ 10 1019.3    2/ 8   2/ 8

$$


USA.gov is the U.S. government's official web portal to all federal, state and local government web resources and services.